Regional Weather Roundup
Issued by NWS Charleston, WV

Home | Current Version | Previous Version | Text Only | Print | Product List | Glossary Off
Versions: 1 2 3 4 5 6 7 8 9 10 11 12 13 14 15 16 17 18 19 20 21 22 23 24 25 26 27 28 29 30 31 32 33 34 35 36 37 38 39 40 41 42 43 44 45 46 47 48 49 50

000
ASUS41 KRLX 090110
RWRRLX
West Virginia Regional Weather Roundup
National Weather Service Charleston WV
800 PM EST MON FEB 08 2016

Note: "fair" indicates few or no clouds below 12,000 feet with no
significant weather and/or obstructions to visibility.

WVZ003-090200-
Northern Panhandle of West Virginia

CITY           SKY/WX    TMP DP  RH WIND       PRES   REMARKS
WHEELING       CLOUDY    33  30  88 W5        29.61S
$$

WVZ009-090200-
Northwest West Virginia

CITY           SKY/WX    TMP DP  RH WIND       PRES   REMARKS
PARKERSBURG    CLOUDY    34  32  92 S3        29.67S
$$

WVZ006-090200-
Western West Virginia

CITY           SKY/WX    TMP DP  RH WIND       PRES   REMARKS
HUNTINGTON     CLOUDY    35  30  82 SW6       29.68S
$$

WVZ015-090200-
West Central West Virginia

CITY           SKY/WX    TMP DP  RH WIND       PRES   REMARKS
CHARLESTON     CLOUDY    34  31  88 SW8       29.67S
$$

WVZ022-031-090200-
North Central West Virginia

CITY           SKY/WX    TMP DP  RH WIND       PRES   REMARKS
CLARKSBURG       N/A     34  32  92 W5        29.63R
MORGANTOWN     MOCLDY    36  31  82 CALM      29.63R
$$

WVZ025-035-042-045-090200-
Southern West Virginia

CITY           SKY/WX    TMP DP  RH WIND       PRES   REMARKS
BECKLEY        MOCLDY    29  26  89 W7        29.63S
LOGAN            N/A     32  30  93 SW5       29.66F
BLUEFIELD      CLOUDY    29  25  85 W6        29.63S
LEWISBURG      CLOUDY    34  32  93 SW3       29.63S
$$

WVZ047-090200-
Northern Mountains of West Virginia

CITY           SKY/WX    TMP DP  RH WIND       PRES   REMARKS
ELKINS         CLOUDY    34  28  79 N3        29.61S
$$

WVZ052-090200-
Eastern Panhandle of West Virginia

CITY           SKY/WX    TMP DP  RH WIND       PRES   REMARKS
MARTINSBURG    CLOUDY    40  26  57 SE7       29.65S
PETERSBURG       N/A     38  31  74 CALM      29.62S
$$



USA.gov is the U.S. government's official web portal to all federal, state and local government web resources and services.